Weather History for KGFL - June, 2013

Change the Weather History Date:

Thursday, June 13, 2013

  Actual Average Record
Temperature  
Mean Temperature 54 °F 64 °F  
Max Temperature 60 °F 76 °F 95 °F (1956)
Min Temperature 47 °F 52 °F 38 °F (1974)
Degree Days  
Heating Degree Days 11 3  
Month to date heating degree days 63 57  
Since 1 June heating degree days 63 57  
Since 1 July heating degree days 6999 7643  
Cooling Degree Days 0 2  
Month to date cooling degree days 21 19  
Year to date cooling degree days 54 31  
Since 1 June cooling degree days 21 19  
Growing Degree Days 4 (Base 50)    
Moisture  
Dew Point 52 °F    
Average Humidity 93    
Maximum Humidity 100    
Minimum Humidity 86    
Precipitation  
Precipitation 0.58 in 0.12 in 1.41 in (2014)
Month to date precipitation 3.97 1.54  
Year to date precipitation 15.90 16.03  
Sea Level Pressure  
Sea Level Pressure 29.76 in    
Wind  
Wind Speed 2 mph (North)    
Max Wind Speed 9 mph    
Max Gust Speed 12 mph    
Visibility 4 miles    
Events Fog , Rain    
T = Trace of Precipitation, MM = Missing Value Source: NWS Daily Summary

Daily Weather History Graph

Daily Weather History Graph

Search for Another Location

Airport or City:

Trip Planner

Search our weather history database for the weather conditions in past years. The results will help you decide how hot, cold, wet, or windy it might be!

Date:

Astronomy

Jun. 13, 2013 Rise Set
Actual Time 5:13 AM EDT 8:35 PM EDT
Civil Twilight 4:37 AM EDT 9:11 PM EDT
Nautical Twilight 3:51 AM EDT 9:57 PM EDT
Astronomical Twilight 2:53 AM EDT 10:55 PM EDT
Moon 9:54 AM EDT (6/13) 11:33 PM EDT (6/13)
Length of Visible Light 16h 33m
Length of Day
15h 22m
Waxing Crescent, 21% of the Moon is Illuminated
Jun 13
Waxing Crescent
Jun 16
First Quarter
Jun 23
Full
Jun 30
Last Quarter
Jul 8
New

Hourly Weather History & Observations

Time (EDT) Temp. Dew Point Humidity Pressure Visibility Wind Dir Wind Speed Gust Speed Precip Events Conditions
12:53 AM 53.1 °F 52.0 °F 96% 29.84 in 5.0 mi Calm Calm - N/A   Partly Cloudy
1:15 AM 53.6 °F 51.8 °F 94% 29.83 in 2.5 mi Calm Calm - N/A   Partly Cloudy
1:23 AM 53.6 °F 51.8 °F 94% 29.82 in 8.0 mi Calm Calm - N/A   Partly Cloudy
1:53 AM 51.1 °F 48.9 °F 92% 29.83 in 6.0 mi Calm Calm - N/A   Clear
2:45 AM 51.8 °F 50.0 °F 94% 29.81 in 1.2 mi Calm Calm - N/A   Clear
2:53 AM 51.1 °F 48.9 °F 92% 29.82 in 0.5 mi Calm Calm - N/A Fog Fog
3:06 AM 50.0 °F 50.0 °F 100% 29.81 in 1.8 mi Calm Calm - N/A   Clear
3:09 AM 50.0 °F 48.2 °F 94% 29.81 in 3.0 mi Calm Calm - N/A   Clear
3:31 AM 48.2 °F 48.2 °F 100% 29.81 in 2.0 mi Calm Calm - N/A   Clear
3:40 AM 50.0 °F 48.2 °F 94% 29.80 in 4.0 mi Calm Calm - N/A   Clear
3:53 AM 48.9 °F 48.0 °F 97% 29.80 in 10.0 mi Calm Calm - N/A   Clear
4:08 AM 48.2 °F 48.2 °F 100% 29.79 in 2.5 mi North 3.5 mph - N/A   Partly Cloudy
4:12 AM 48.2 °F 46.4 °F 93% 29.80 in 1.0 mi Calm Calm - N/A   Mist
4:19 AM 48.2 °F 46.4 °F 93% 29.80 in 0.5 mi Calm Calm - N/A Fog Fog
4:40 AM 48.2 °F 46.4 °F 93% 29.80 in 1.5 mi Calm Calm - N/A   Scattered Clouds
4:42 AM 48.2 °F 46.4 °F 93% 29.80 in 4.0 mi Calm Calm - N/A   Partly Cloudy
4:53 AM 48.0 °F 46.0 °F 93% 29.81 in 9.0 mi Calm Calm - N/A   Partly Cloudy
5:00 AM 48.2 °F 46.4 °F 93% 29.80 in 1.5 mi Calm Calm - N/A   Partly Cloudy
5:04 AM 48.2 °F 46.4 °F 93% 29.80 in 0.8 mi Calm Calm - N/A   Mist
5:16 AM 48.2 °F 46.4 °F 93% 29.79 in 0.2 mi Calm Calm - N/A Fog Fog
5:28 AM 48.2 °F 46.4 °F 93% 29.78 in 1.2 mi NE 3.5 mph - N/A   Scattered Clouds
5:30 AM 48.2 °F 46.4 °F 93% 29.78 in 5.0 mi Calm Calm - N/A   Scattered Clouds
5:38 AM 48.2 °F 46.4 °F 93% 29.79 in 3.0 mi Calm Calm - N/A   Mostly Cloudy
5:41 AM 48.2 °F 46.4 °F 93% 29.78 in 1.8 mi Calm Calm - N/A   Mostly Cloudy
5:49 AM 48.2 °F 48.2 °F 100% 29.78 in 2.0 mi Calm Calm - N/A   Scattered Clouds
5:53 AM 48.9 °F 48.0 °F 97% 29.79 in 5.0 mi Calm Calm - N/A   Scattered Clouds
6:03 AM 51.8 °F 48.2 °F 88% 29.78 in 3.0 mi Calm Calm - N/A   Mostly Cloudy
6:11 AM 51.8 °F 48.2 °F 88% 29.78 in 8.0 mi Calm Calm - N/A   Partly Cloudy
6:23 AM 51.8 °F 50.0 °F 94% 29.79 in 5.0 mi Calm Calm - N/A   Mostly Cloudy
6:53 AM 53.1 °F 51.1 °F 93% 29.80 in 7.0 mi Calm Calm - N/A   Mostly Cloudy
7:04 AM 53.6 °F 51.8 °F 94% 29.79 in 8.0 mi Calm Calm - N/A   Scattered Clouds
7:11 AM 53.6 °F 51.8 °F 94% 29.79 in 8.0 mi Calm Calm - N/A   Mostly Cloudy
7:42 AM 55.4 °F 51.8 °F 88% 29.78 in 9.0 mi Calm Calm - N/A   Mostly Cloudy
7:53 AM 55.0 °F 53.1 °F 93% 29.78 in 9.0 mi Calm Calm - N/A   Mostly Cloudy
8:36 AM 55.4 °F 53.6 °F 94% 29.76 in 5.0 mi Calm Calm - N/A   Overcast
8:53 AM 55.9 °F 54.0 °F 93% 29.76 in 5.0 mi Calm Calm - N/A   Mostly Cloudy
9:03 AM 55.4 °F 53.6 °F 94% 29.76 in 6.0 mi Calm Calm - N/A   Mostly Cloudy
9:53 AM 57.0 °F 55.0 °F 93% 29.77 in 5.0 mi Calm Calm - 0.00 in Rain Light Rain
10:53 AM 57.0 °F 54.0 °F 89% 29.76 in 3.0 mi Calm Calm - 0.04 in Rain Light Rain
11:14 AM 57.2 °F 55.4 °F 94% 29.76 in 3.0 mi Calm Calm - 0.03 in Rain Light Rain
11:36 AM 57.2 °F 55.4 °F 94% 29.76 in 2.5 mi Calm Calm - 0.06 in Rain Light Rain
11:45 AM 57.2 °F 55.4 °F 94% 29.76 in 2.0 mi Calm Calm - 0.07 in Rain Light Rain
11:53 AM 57.9 °F 55.0 °F 90% 29.76 in 2.5 mi West 3.5 mph - 0.08 in Rain Light Rain
12:07 PM 57.2 °F 55.4 °F 94% 29.75 in 2.0 mi SW 3.5 mph - 0.02 in Rain Light Rain
12:14 PM 57.2 °F 55.4 °F 94% 29.75 in 2.0 mi Calm Calm - 0.03 in Rain Light Rain
12:35 PM 57.2 °F 55.4 °F 94% 29.74 in 3.0 mi South 3.5 mph - 0.05 in Rain Light Rain
12:38 PM 57.2 °F 55.4 °F 94% 29.74 in 2.5 mi Calm Calm - 0.06 in Rain Light Rain
12:49 PM 57.2 °F 55.4 °F 94% 29.73 in 2.5 mi Calm Calm - 0.08 in Rain Light Rain
12:51 PM 57.2 °F 55.4 °F 94% 29.73 in 3.0 mi Calm Calm - 0.08 in Rain Light Rain
12:53 PM 57.9 °F 55.0 °F 90% 29.74 in 3.0 mi Calm Calm - 0.08 in Rain Light Rain
1:05 PM 57.2 °F 55.4 °F 94% 29.72 in 3.0 mi Calm Calm - 0.03 in Rain Light Rain
1:13 PM 57.2 °F 55.4 °F 94% 29.71 in 2.5 mi Calm Calm - 0.04 in Rain Rain
1:32 PM 59.0 °F 55.4 °F 88% 29.71 in 4.0 mi Calm Calm - 0.07 in Rain Light Rain
1:53 PM 59.0 °F 55.0 °F 87% 29.72 in 5.0 mi Calm Calm - 0.09 in Rain Light Rain
2:10 PM 59.0 °F 55.4 °F 88% 29.70 in 4.0 mi Calm Calm - 0.02 in Rain Light Rain
2:53 PM 59.0 °F 55.9 °F 90% 29.71 in 5.0 mi NW 3.5 mph - 0.07 in Rain Light Rain
3:21 PM 59.0 °F 55.4 °F 88% 29.70 in 3.0 mi Calm Calm - 0.04 in Rain Rain
3:29 PM 60.8 °F 57.2 °F 88% 29.70 in 4.0 mi Calm Calm - 0.05 in Rain Light Rain
3:53 PM 60.1 °F 57.0 °F 90% 29.71 in 4.0 mi Calm Calm - 0.08 in Rain Light Rain
4:01 PM 60.8 °F 57.2 °F 88% 29.70 in 4.0 mi Calm Calm - 0.01 in Rain Light Rain
4:21 PM 60.8 °F 55.4 °F 82% 29.71 in 7.0 mi Calm Calm - 0.02 in Rain Light Rain
4:38 PM 59.0 °F 55.4 °F 88% 29.71 in 4.0 mi ENE 4.6 mph - 0.05 in Rain Rain
4:53 PM 59.0 °F 55.9 °F 90% 29.73 in 6.0 mi ENE 5.8 mph - 0.07 in Rain Light Rain
5:53 PM 59.0 °F 55.9 °F 90% 29.71 in 10.0 mi NE 5.8 mph - 0.03 in Rain Light Rain
6:53 PM 57.9 °F 54.0 °F 87% 29.72 in 10.0 mi NNE 6.9 mph - 0.02 in Rain Light Rain
7:53 PM 57.0 °F 55.0 °F 93% 29.72 in 10.0 mi North 5.8 mph - 0.02 in Rain Light Rain
8:53 PM 57.0 °F 54.0 °F 89% 29.71 in 10.0 mi North 6.9 mph - 0.00 in Rain Light Rain
9:53 PM 55.9 °F 54.0 °F 93% 29.72 in 10.0 mi North 3.5 mph - 0.00 in   Overcast
10:53 PM 55.9 °F 53.1 °F 90% 29.73 in 10.0 mi North 5.8 mph - 0.00 in Rain Light Rain
11:53 PM 55.0 °F 53.1 °F 93% 29.73 in 10.0 mi North 3.5 mph - 0.00 in   Overcast